This is the latest recevied weather packets stored in our database for station/object CA3VLN-10. If no packets are shown the sender has not sent any weather packets the latest 10 day(s).
| Time | Temp. | Humidity | Pressure | Rain* | Wind** | Luminosity | Snow |
|---|---|---|---|---|---|---|---|
| 1787440404 | 25° C | 33% | 1004.3 hPa | - | - | - | - |
| 1787439504 | 25.56° C | 33% | 1004.5 hPa | - | - | - | - |
| 1787438604 | 25.56° C | 31% | 1004.4 hPa | - | - | - | - |
| 1787437704 | 26.11° C | 29% | 1004.3 hPa | - | - | - | - |
| 1787436804 | 26.67° C | 28% | 1004.2 hPa | - | - | - | - |
| 1787435904 | 27.22° C | 27% | 1004.2 hPa | - | - | - | - |
| 1787435004 | 27.78° C | 25% | 1004.1 hPa | - | - | - | - |
| 1787434104 | 28.89° C | 24% | 1003.9 hPa | - | - | - | - |
| 1787433203 | 29.44° C | 24% | 1003.8 hPa | - | - | - | - |
| 1787432303 | 30° C | 23% | 1003.8 hPa | - | - | - | - |
| 1787431403 | 30° C | 23% | 1003.7 hPa | - | - | - | - |
| 1787430503 | 30° C | 24% | 1003.7 hPa | - | - | - | - |
| 1787429603 | 30° C | 24% | 1003.5 hPa | - | - | - | - |
| 1787428703 | 29.44° C | 24% | 1003.5 hPa | - | - | - | - |
| 1787427803 | 30° C | 23% | 1003.5 hPa | - | - | - | - |
| 1787426902 | 30° C | 23% | 1003.4 hPa | - | - | - | - |
| 1787426002 | 30° C | 23% | 1003.4 hPa | - | - | - | - |
| 1787425102 | 30.56° C | 23% | 1003.4 hPa | - | - | - | - |
| 1787424202 | 30.56° C | 23% | 1003.5 hPa | - | - | - | - |
| 1787423302 | 31.11° C | 23% | 1003.6 hPa | - | - | - | - |
| 1787422402 | 30.56° C | 24% | 1003.6 hPa | - | - | - | - |
| 1787421502 | 30° C | 25% | 1003.7 hPa | - | - | - | - |
| 1787420602 | 29.44° C | 26% | 1003.9 hPa | - | - | - | - |
| 1787419702 | 29.44° C | 26% | 1004 hPa | - | - | - | - |
| 1787418802 | 28.89° C | 26% | 1004.2 hPa | - | - | - | - |
* Rain since midnight (hover to see other rain measurements)
** Current wind speed in m/s (hover to see current wind gust speed)